{"data":{"norad_id":29055,"epoch":"2026-09-19T15:21:00.645120Z","epoch_age_seconds":88722,"freshness":"FRESH","line1":"1 29055U 06012A   26262.63959080  .00000115  00000+0  00000+0 0  9993","line2":"2 29055   0.7107  82.6252 0003532  92.3165  72.8581  1.00271059 46648","mean_motion":1.00271059,"eccentricity":0.0003532,"inclination_deg":0.7107,"raan_deg":82.6252,"arg_perigee_deg":92.3165,"mean_anomaly_deg":72.8581,"bstar":0,"rev_number":4664,"period_min":1436.1073019085,"perigee_km":35771.905831359,"apogee_km":35801.691141787,"semimajor_km":42164.935486573,"source":"CELESTRAK","updated_at":"2026-09-20T09:00:35.637447Z"}}